Simultaneous Nadir Overpasses (SNOs) Predictions

Prediction of SNOs between AQUA and NOAA-19 Satellite Orbit:

Table of predicted SNOs for the next 14.0 days since TLE Epoch: 10/25/2013
Index Date (AQUA) Time (AQUA) Lat,Lon (AQUA) SZA (AQUA ) Date (NOAA-19) Time (NOAA-19) Lat,Lon (NOAA-19) SZA (NOAA-19 ) Distance(km) Time Diff (sec)
1 10/26/2013 15:04:02 -81.78, 61.40 80.50 10/26/2013 15:02:49 -81.05, 61.96 80.82 82.22 73
2 10/26/2013 15:46:53 65.66, -51.34 78.50 10/26/2013 15:47:00 65.67, -51.36 78.51 1.26 7
3 10/28/2013 20:31:33 66.51,-123.29 80.02 10/28/2013 20:31:27 66.51,-123.32 80.03 1.55 6
4 10/31/2013 01:16:07 67.04, 165.05 81.24 10/31/2013 01:15:48 67.04, 165.05 81.24 0.24 19
5 10/31/2013 02:03:40 -60.65, -21.82 104.64 10/31/2013 02:04:54 -60.68, -21.74 104.57 5.24 74
6 11/02/2013 06:00:48 68.00, 92.88 82.85 11/02/2013 06:00:17 68.01, 92.83 82.85 2.44 31
7 11/02/2013 06:48:48 -63.18, -94.81 101.64 11/02/2013 06:49:51 -63.18, -94.81 101.61 0.18 63
8 11/04/2013 10:45:11 67.97, 21.81 83.51 11/04/2013 10:44:27 67.96, 21.86 83.49 2.31 44
9 11/04/2013 11:33:33 -64.41,-166.94 99.82 11/04/2013 11:34:25 -64.41,-166.98 99.80 1.89 52
10 11/06/2013 15:29:53 69.04, -50.59 85.19 11/06/2013 15:28:58 69.05, -50.63 85.19 1.71 55




NCC Satellite Simultaneous Nadir Overpasses (SNOs) Prediction Service
